Regional Weather Roundup
Issued by NWS Charleston, SC

Current Version | Previous Version | Graphics & Text | Print | Product List | Glossary Off
Versions: 1 2 3 4 5 6 7 8 9 10 11 12 13 14 15 16 17 18 19 20 21 22 23 24 25 26 27 28 29 30 31 32 33 34 35 36 37 38 39 40 41 42 43 44 45 46 47 48 49 50
000 ASUS42 KCHS 241412 RWRCHS REGIONAL WEATHER ROUNDUP NATIONAL WEATHER SERVICE CHARLESTON SC 1000 AM EDT SAT JUN 24 2017 NOTE: "FAIR" INDICATES FEW OR NO CLOUDS BELOW 12,000 FEET WITH NO SIGNIFICANT WEATHER AND/OR OBSTRUCTIONS TO VISIBILITY. NOT ALL STATIONS ARE QUALITY CONTROLLED. USE DATA WITH CAUTION... ESPECIALLY DEWPOINT OBSERVATIONS. SCZ027-030-031-034>040-042>050-241500- ...SOUTHEAST SOUTH CAROLINA... CITY SKY/WX TMP DP RH WIND PRES REMARKS N CHARLESTON MOSUNNY 86 74 67 W7 30.02R HX 94 WATERFRONT PRK N/A 84 75 74 SW6G13 29.99S HX 92 JOHNS ISLAND NOT AVBL PINOPOLIS N/A 81 75 83 W10 29.95R MONCKS CORNER NOT AVBL SUMMERVILLE NOT AVBL BEAUFORT MCAS SUNNY 86 76 71 W13 30.02S HX 96 BEAUFORT ARPT NOT AVBL HILTON HEAD IS SUNNY 86 75 70 SW9G17 30.03S HX 95 WALTERBORO SUNNY 82 72 69 W8 30.03S ALLENDALE FAIR 84 73 70 VRB6 30.01R HX 91 ...SOUTHERN MIDLANDS AND PEE DEE... CITY SKY/WX TMP DP RH WIND PRES REMARKS GEORGETOWN FAIR 84 73 70 W12G20 30.02R HX 91 KINGSTREE NOT AVBL ORANGEBURG MOSUNNY 83 73 72 W13 30.00S BARNWELL PTSUNNY 84 75 74 SW9 30.01S HX 92 AIKEN FAIR 81 72 74 SW14 30.04S MANNING NOT AVBL COLUMBIA MOSUNNY 85 73 67 SW8 29.98S HX 91 SUMTER MOSUNNY 84 73 69 SW15 29.96S HX 90 FLORENCE MOSUNNY 84 74 71 W12 29.97S HX 91 MYRTLE BEACH MOSUNNY 84 75 74 W15 30.00R HX 92 N MYRTLE BEACH MOSUNNY 86 75 69 W12G17 29.98S HX 95 $$ GAZ063-065-086>088-099>101-113>116-118-119-134>141-150-241500- ...SOUTHEAST GEORGIA... CITY SKY/WX TMP DP RH WIND PRES REMARKS SAVANNAH ARPT MOSUNNY 86 73 65 SW9 30.03F HX 93 HUNTER AAF SUNNY 85 75 72 W7 30.00F HX 94 FORT STEWART SUNNY 84 73 68 SW9 30.01S HX 91 STATESBORO SUNNY 83 75 75 W6 30.03S HX 91 SYLVANIA SUNNY 83 76 78 SW8 30.03F HX 92 CLAXTON FAIR 82 72 72 SW6 30.04S ...CSRA...CENTRAL AND FAR SOUTHEAST GEORGIA... CITY SKY/WX TMP DP RH WIND PRES REMARKS THOMSON PTSUNNY 82 72 71 NW12 30.06S AUGUSTA-BUSH MOSUNNY 87 73 62 W8 29.99S HX 94 AUGUSTA-DANIEL MOSUNNY 85 70 60 VRB7 30.01S SWAINSBORO FAIR 82 73 74 W7 30.03S VIDALIA MOSUNNY 82 73 74 SW8 30.04S EASTMAN FAIR 82 65 56 SW8 30.06S HAZLEHURST N/A 83 76 78 W7 30.04S HX 91 ALMA SUNNY 83 72 69 SW8 30.05R WAYCROSS MOSUNNY 85 79 83 W8 30.05F HX 97 JESUP FAIR 84 72 65 SW5 30.05S BAXLEY FAIR 82 79 89 W7 30.04S HX 93 BRUNSWICK SUNNY 84 77 79 W7 30.05S HX 94 SAINT SIMONS SUNNY 83 75 77 SW8 30.04F HX 90 $$ SCZ027-028-034-036>038-045-046-048>050-GAZ119-141-241500- ...LAKE AND SUPPLEMENTAL COASTAL OBSERVATIONS... STATION/POSITION TIME TEMP WIND PRES WAVE SWELL AIR SEA DIR/SP/G HT/PER HT/PER/DIR (UTC) (F) (DEG/KT/KT) (MB) (FT/S) (FT/S/D) WINYAH BAY NOT AVBL LAKE MURRAY 1320 80 240/ 13/ 15 1014.2 ACE BASIN NERRS NOT AVBL FORT PULASKI 1348 83 83 240/ 7/ 10 1017.2R SAPELO ISLAND 1300 81 240/ 7 1017.0 $$ ANZ835-935-AMZ111-154-330-350-352-354-370-450-454-472-241500- ...C-MAN AND BUOY OBSERVATIONS... STATION/POSITION TIME TEMP WIND PRES WAVE SWELL AIR SEA DIR/SP/G HT/PER HT/PER/DIR (UTC) (F) (DEG/KT/KT) (MB) (FT/S) (FT/S/D) BUOY 41004 1350 81 81 220/ 17/ 21 1016.4R 5/ 6 2/150/10 BUOY 41008 1250 81 82 230/ 10/ 14 1016.7 4/ 5 3/140/ 5 FOLLY BEACH CMAN 1300 83 220/ 12/ 16 1016.8R CAPERS NEARSHORE 1308 87 82 250/ 17/ 23 1015.6R FRIPP NEARSHORE 1308 82 82 230/ 14/ 17 1016.1R STATION/POSITION TIME TEMP WIND PRES WAVE SWELL AIR SEA DIR/SP/G HT/PER HT/PER/DIR (UTC) (F) (DEG/KT/KT) (MB) (FT/S) (FT/S/D) 5E ST. MARYS GA 1330 79 N/A 3/10 FRYING PAN BUOY 1350 81 81 230/ 19/ 23 1015.9R 7/ 6 2/170/10 BUOY 41025 1350 80 80 240/ 23/ 27 1013.4R 8/ 7 CAPE LOOKOUT NC 1300 81 230/ 15/ 21 1013.7S BUOY 41002 1350 81 80 200/ 14/ 16 1018.8R 4/ 5 2/ 90/ 9 BUOY 41010 1350 83 83 190/ 12/ 14 1018.9R 4/ 8 3/120/ 8 ST AUGUSTINE FL 1400 85 76 270/ 3/ 6 1018.6R $$

USA.gov is the U.S. government's official web portal to all federal, state and local government web resources and services.